Regional Weather Roundup
Issued by NWS Grand Forks, ND

Home | Current Version | Previous Version | Text Only | Print | Product List | Glossary Off
Versions: 1 2 3 4 5 6 7 8 9 10 11 12 13 14 15 16 17 18 19 20 21 22 23 24 25 26 27 28 29 30 31 32 33 34 35 36 37 38 39 40 41 42 43 44 45 46 47 48 49 50

360
ASUS43 KFGF 301710
RWRFGF
PRAIRIE TO PINES  WEATHER ROUNDUP
NATIONAL WEATHER SERVICE EASTERN NORTH DAKOTA/GRAND FORKS ND
1200 PM CDT SAT APR 30 2016

 **SATELLITE DATA USED TO AUGMENT SKY COVER AT AUTOMATED STATIONS**
 *****  WEATHER ACROSS EASTERN NORTH DAKOTA  *****

CITY           SKY/WX    TMP DP  RH WIND       PRES   REMARKS
GRAND FORKS    MOSUNNY   58  29  33 E17G31    30.25F
GRAND FRKS AFB SUNNY     57  27  31 NE16G26   30.26F
DEVILS LAKE    SUNNY     54  29  38 NE22G28   30.27F
FARGO          SUNNY     59  31  34 NE23G30   30.17F
WAHPETON ARPT  CLOUDY    55  30  38 E18G25    30.14S
$$

 ***** WEATHER ACROSS CENTRAL AND WESTERN NORTH DAKOTA  *****

CITY           SKY/WX    TMP DP  RH WIND       PRES   REMARKS
BISMARCK       CLOUDY    56  35  45 E14       30.21R
MINOT          SUNNY     61  28  28 NE17G25   30.26F
JAMESTOWN      CLOUDY    55  31  39 NE22G33   30.19S
MINOT AFB      SUNNY     58  30  34 E17G24    30.25F
GARRISON         N/A     56  32  40 NE17G26   30.24R
WILLISTON      SUNNY     59  28  30 E13G25    30.27S
DICKINSON      MOSUNNY   54  32  43 NE17G25   30.18S
HETTINGER      PTSUNNY   54  34  46 NE20G26   30.18R
$$

 *****  OTHER AIRPORT OBSERVATIONS IN OUR AREA  *****

CITY           SKY/WX    TMP DP  RH WIND       PRES   REMARKS
WALHALLA       FAIR      55  32  41 NE16G23   30.32F
GRAFTON AIRPOR FAIR      57  30  35 NE20G28   30.30F
VALLEY CITY AR FAIR      54  32  43 E24G33    30.20S
CANDO          FAIR      57  28  33 E15G25    30.30F
CAVALIER APRT  FAIR      55  32  41 NE14G22   30.31F
GWINNER        FAIR      55  32  41 NE25G31   30.15S
SHEYENNE NWR     N/A     56  30  37 E21       29.95S
ROLLA          FAIR      55  27  33 E15G22    30.30F
 ***** THE ABOVE OBSERVATIONS ARE NON NWS ARE NOT QUALITY
       CONTROLLED AND MAY MIS-REPORT RAIN FOR SNOW...
$$

  *****  WEATHER ACROSS NORTHERN MINNESOTA  *****

CITY           SKY/WX    TMP DP  RH WIND       PRES   REMARKS
FLAG ISLAND    SUNNY     48  25  40 NE17G23   30.33F
WARROAD        SUNNY     48  34  57 NE12      30.33F
ROSEAU         SUNNY     54  34  47 E20G25    30.31F
HALLOCK        SUNNY     57  25  28 E17G23    30.30F
THF RVR FALLS  SUNNY     54  27  35 NE22G29   30.27S
BAUDETTE       SUNNY     54  24  31 NE18G25   30.30F
WASKISH        SUNNY     55  28  35 NE14G25   30.26F
CROOKSTON      SUNNY     55  28  35 E16G25    30.25F
STEPHEN NDAWN    N/A     57  30  35 MISG        N/A
GREENBUSH NDAW   N/A     55  32  41 E13         N/A
$$
  *****  WEATHER ACROSS CENTRAL AND WEST MINNESOTA  *****

CITY           SKY/WX    TMP DP  RH WIND       PRES   REMARKS
FOSSTON        SUNNY     54  28  37 NE16G24   30.23S
BEMIDJI        SUNNY     53  26  35 E20       30.21F
PARK RAPIDS    SUNNY     54  28  36 E16G26    30.17F
ELBOW LAKE     FAIR      52  33  48 NE16G23   30.12S
WADENA         CLOUDY    54  30  40 E17G26    30.13F
DETROIT LAKES  SUNNY     54  30  40 NE18G26   30.17F
MOORHEAD       SUNNY     57  30  35 NE20G28   30.18F
FERGUS FALLS   CLOUDY    54  32  43 E16G29    30.12F
MORRIS MN      CLOUDY    52  37  58 NE22      30.10R
STAPLES        CLOUDY    54  28  37 NE14G23   30.13F
$$
  *****  WEATHER ELSEWHERE ACROSS MINNESOTA  *****

CITY           SKY/WX    TMP DP  RH WIND       PRES   REMARKS
DULUTH         MOSUNNY   47  30  51 E25G35    30.23F
INTRNTL FALLS  SUNNY     51  27  39 NE13G18   30.30S
ELY            MOSUNNY   48  25  40 NE8       30.26F
CLOQUET        MOSUNNY   48  28  46 NE24G32   30.21F
WHEATON        CLOUDY    55  36  47 NE17G30   30.13S
BRAINERD       CLOUDY    54  32  43 NE18G33   30.15F
HIBBING        PTSUNNY   51  28  41 E13G20    30.22F
ALEXANDRIA     PTSUNNY   52  32  46 E21G29    30.12S
SAINT CLOUD    PTSUNNY   52  31  44 NE16G26   30.11S
MINNEAPOLIS    CLOUDY    53  32  44 E21G29    30.07S
$$

  *****  WEATHER ACROSS SOUTH DAKOTA  *****

CITY           SKY/WX    TMP DP  RH WIND       PRES   REMARKS
SIOUX FALLS    RAIN      42  39  89 NE18G32   29.93F FOG
BROOKINGS      PTSUNNY   44  36  73 NE17G26   29.99S
WATERTOWN      CLOUDY    47  36  65 NE20G28   30.05R
HURON          CLOUDY    50  38  63 NE21G28   30.02S
SISSETON         N/A     53  34  48 E23       30.10R
ABERDEEN       CLOUDY    54  32  43 NE21G36   30.11S
MITCHELL       LGT RAIN  44  38  79 NE21      29.98S
PIERRE         CLOUDY    50  36  58 NE23G31   30.03F
MOBRIDGE       MOSUNNY   55  36  48 NE20G30   30.11S
RAPID CITY     CLOUDY    45  36  70 NE17      30.09S
$$

  *****  SOME WEATHER IN NEARBY STATES *****

CITY           SKY/WX    TMP DP  RH WIND       PRES   REMARKS
GLASGOW MT     SUNNY     56  32  40 E13       30.26R
GREAT FALLS MT CLOUDY    48  37  65 VRB5      30.20R
CHEYENNE WY    LGT SNOW  31  28  89 N20G26    29.96R VSB 3/4 WCI  19
SCOTTSBLUFF NE LGT RAIN  36  32  85 N16       29.97R
OMAHA NE       DRIZZLE   48  46  93 E8        29.72S FOG
DES MOINES IA  LGT RAIN  48  45  89 NE12      29.77S FOG
DAVENPORT IA   RAIN      49  46  90 E22G30    29.87S FOG
CHICAGO IL     LGT RAIN  45  40  82 E15G23    30.00F
EAU CLAIRE WI  CLOUDY    54  33  45 E20G25    30.08F
LA CROSSE WI   CLOUDY    50  34  54 E12       30.04F
$$

  *****  SOME NATIONAL WEATHER *****

CITY           SKY/WX    TMP DP  RH WIND       PRES   REMARKS
LA GUARDIA NY  MOSUNNY   60  38  43 NE7       30.18F
RALEIGH NC     CLOUDY    63  57  81 E8        30.15F
ATLANTA GA     PTSUNNY   84  63  49 S14G21    29.99S
NEW ORLEANS LA CLOUDY    81  72  74 SE16G24   29.82F
OKLAHOMA CITY  MOSUNNY   60  48  64 NW10      29.83S
ALBUQUERQUE NM PTSUNNY   56  36  47 VRB5      29.88F
SALT LAKE CITY MOSUNNY   56  31  38 CALM      29.94S
LOS ANGELES CA PTSUNNY   60  50  69 SW6       29.84F
BOISE ID       SUNNY     58  38  47 NW21      30.05F
SEATTLE WA     PTSUNNY   53  44  71 CALM      30.38S
$$

*** WEATHER ACROSS MANITOBA...SASKATCHEWAN AND ONTARIO ***
                ***ONTARIO***

CITY           SKY/WX    TMP DP  RH WIND       PRES   REMARKS
GERALDTON      PTSUNNY   43  27  52 N8        30.34R
THUNDER BAY    CLOUDY    48  27  43 E13       30.31S
SIOUX LOOKOUT  MOSUNNY   50  25  37 N8        30.35F
TORONTO        PTSUNNY   55  25  30 SE13G20   30.18F
BIG TROUT LK   SUNNY     41  28  60 S7        30.42F
PICKLE LAKE    PTSUNNY   41  27  56 N6        30.39S
DRYDEN         SUNNY     50  23  34 E12G18    30.33F
KENORA         MOSUNNY   50  23  34 E13G20    30.34F
$$
                *** MANITOBA***

CITY           SKY/WX    TMP DP  RH WIND       PRES   REMARKS
BRANDON        MOSUNNY   57  25  28 E18       30.34F
DAUPHIN        SUNNY     59  25  27 NE10      30.40F
ISLAND LAKE    MOSUNNY   55  23  28 VRB2      30.40F
PILOT MOUND      N/A     55  25  30 E14G21      N/A
THE PAS        MOSUNNY   59  27  29 NW8       30.38S
THOMPSON       PTSUNNY   57  27  30 W3        30.35F
WINNIPEG       MOSUNNY   57  30  35 NE14G22   30.36F
LYNN LAKE      SUNNY     64  25  22 SW13G20   30.29S
CHURCHILL      PTSUNNY   36  21  55 SE10      30.46F
$$
                ***SASKATCHEWAN***

CITY           SKY/WX    TMP DP  RH WIND       PRES   REMARKS
ESTEVAN        MOSUNNY   57  27  30 E10G20    30.31F
KINDERSLEY     PTSUNNY   57  34  41 S13       30.28R
LLOYDMINSTER   PTSUNNY   61  32  33 S13       30.25R
PRINCE ALBERT  NOT AVBL
REGINA         MOSUNNY   59  25  27 SE13G18   30.34S
YORKTON        SUNNY     59  25  27 SE10G18   30.38S
N. BATTLEFORD  MOSUNNY   64  27  24 S15G25    30.29F
LA RONGE       MOSUNNY   63  23  22 S9        30.30S
SASKATOON      MOSUNNY   61  27  27 SE13      30.33F
SWIFT CURRENT  SUNNY     57  27  30 SE12G23   30.28R
$$
NOTE: THESE ARE AUTOMATED STATIONS WITH LIMITED QUALITY CONTROL
      "FAIR" INDICATES FEW OR NO CLOUDS BELOW 12,000 FEET WITH NO
      SIGNIFICANT WEATHER AND/OR OBSTRUCTIONS TO VISIBILITY.
      SKY/WX - SKY CONDITION AND SIGNIFICANT WEATHER.
      TMP - AIR TEMPERATURE.    DP   - DEWPOINT TEMPERATURE.
      RH  - RELATIVE HUMIDITY.  PRES - PRESSURE.
      HX  - HEAT INDEX.         WCI  - WIND CHILL INDEX.
$




USA.gov is the U.S. government's official web portal to all federal, state and local government web resources and services.